DELTA 1 R/B, 2661

Orbit data source: Space-Track

DELTA 1 R/B, 2661 is space debris in SSO originally from a launch on Thu, 26 Jan 1967 UTC launched from the Air Force Western Test Range (AFWTR). Debris objects in space refer to the collection of defunct objects orbiting the Earth. Examples of debris include non-operational satellites, rocket bodies, and fragments generated from explosions, collisions, or faulty payload assembly.

Loading next visibility...
Identifier
2661, 1967-006B
Orbit
SSO
Country
Flag of USUS
Related business
Manufacturer
ABL
Mission
Spacecraft
Bus & Motor
ALTAIR, Unknown motor
Mass
33 kg wet, 33 kg dry
Launch date (UTC)
1967-01-26 (59 years ago)
Launch vehicle
Unknown
Launch site
Air Force Western Test Range (AFWTR)
Object type
Payload
Rocket body
Debris
Shape & HBR
Unknown
Radar Cross Section
Medium (>0.1 m² and <1 m²)

Expand to show TLE details & history
Last TLE update: 1 day ago

TLE from 1 day ago
0 DELTA 1 R/B
1  2661U 67006B   25312.67131061 -.00000015  00000-0  17001-3 0  9991
2  2661 101.9520  19.9529 0065122 128.5451  24.5806 12.68017852720208
Epoch: 2025-11-08T16:06Z
TLE epoch observation values (Epoch: 2025-11-08T16:06:41.236Z)
Latitude
25.97603°
Longitude
-83.92642°
Altitude
1,346.94 km
Speed
7.208 km/s
True Right ascension
13h 43m 22s
True Declination
25° 51' 04"
Sunlit
Object was in daylight at epoch
Visualization orbit readout
Latitude
Unknown
Longitude
Unknown
Altitude
Unknown
Speed
Unknown
Apparent Right ascension
Unknown
Apparent Declination
Unknown
Sunlit
N/A
Visualization observer readout
Local Sidereal Time
14:23:46
Azimuth
Unknown
Elevation
Unknown
Doppler factor
Unknown
Orbital elements
Apogee altitude
1,438.132 km
Perigee altitude
1,336.988 km
Semi-major axis
7,765.697 km
Eccentricity
0.00651
Inclination
101.952°
RAAN
19.9529°
Arg. of periapsis
128.5451°
True anomaly
24.89333°
Mean anomaly
24.5806°
Eccentric anomaly
24.73673°
Mean motion
3.17156 °/min
Orbital period
113.51 mins
BSTAR
0.00017001
Loading maneuver chart data...
Computing Atmospheric mass density...
Loading historical data...
Loading historical data...
Loading historical data...
Loading historical data...
Loading historical data...
Loading historical data...
Loading historical data...
Other satellites on launch #6 in the year 1967 (1967-01-26 UTC)

Documentation

Showing up to 5 results
|